星链-1011 (STARLINK-1011 )

导读 | 星芒AI

STARLINK-1011 是 SpaceX Starlink 卫星互联网项目中的一颗低轨通信卫星,属于第 26 批部署的星链卫星。该卫星于 2021 年 10 月发射,运行在约 550 公里的轨道高度,旨在为全球用户提供高速、低延迟的互联网服务。Starlink 项目计划部署数千颗卫星,以构建覆盖全球的宽带网络,尤其服务于偏远地区。STARLINK-1011 采用先进通信技术,支持 Ku 和 Ka 频段,具备高数据传输能力和自动避撞功能,是实现全球互联网接入目标的重要组成部分。

基本信息
目录编号:
44717
目录名称:
STARLINK-1011
国际标识:
2019-074E
轨道中心:
EARTH
卫星名称:
星链-1011
卫星全名:
星链-1011 (STARLINK-1011 )
卫星状态:
已陨落 最后检测时间 2025-12-06
发射日期:
2019-11-11 UTC
国别 :
美国 (US)
星等 :
--
轨道信息
数据来源 国际轨道数据
星历时间: 2025-12-06T08:42:39+0800
轨道信息已过期7天
半长轴: 6530.291km
偏心率: 0.0006732
轨道倾角: 53.029°
近地点辐角 242.027°
升交点赤经 205.354°
平近点角 118.010°
近地点: 147.759km
远地点: 156.553km
周期: 87.530分钟
每日圈数: 16.451443
详细信息
固有亮度:
5
最大亮度:
2.5
卫星平台:
Starlink V1.0
覆盖范围:
全球
运营商:
太空探索技术公司
运营商所在国:
美国
制造商(研发单位):
太空探索技术公司
制造商所在国:
美国
使用方式:
暂无
卫星简介
星链(Starlink)计划是由太空探索技术公司(SpaceX)提出的一个巨型低轨卫星互联网星座项目,计划在2019年至2024年间在太空搭建由约1.2万颗卫星组成的“星链”网络,其中1584颗将部署在地球上空550千米处的近地轨道,并从2020年开始工作。该卫星仍在工作。